Location: Bourg-d�Oueil
(42.8588°N, 0.4991°E)
Time: 20:12:28
(UTC+00:00)

Cosmos 2219 Rocket - Pass Details

Date: 16 June 2021
Orbit: 829 x 845 km, 71.0° (Epoch: 02 August)

Event Time Altitude Azimuth Distance (km) Brightness Sun altitude
Exits shadow 23:06:04 15° 235° (SW) 2,101 4.0 -22.7°
Maximum altitude 23:10:23 43° 301° (WNW) 1,177 3.2 -22.8°
Drops below altitude 10° 23:15:47 10° 13° (NNE) 2,473 5.5 -23.0°
Sets 23:18:22 0° 20° (NNE) 3,410 6.3 -23.1°
